Location: Geyikbay?r?
(36.8756°N, 30.4583°E)
Time: 00:48:27
(UTC+00:00)

Terra - Pass Details

Date: 05 August 2024
Orbit: 690 x 696 km, 98.0° (Epoch: 18 September)

Event Time Altitude Azimuth Distance (km) Brightness Sun altitude
Exits shadow 18:33:59 27° 100° (E) 1,321 2.7 -17.1°
Maximum altitude 18:35:15 31° 70° (ENE) 1,204 2.7 -17.3°
Drops below altitude 10° 18:39:24 10° 9° (N) 2,162 4.7 -17.9°
Sets 18:41:51 0° 359° (N) 3,083 5.7 -18.3°
